Flag for U.S.A. Weather past 2 weeks in Santa Clara, California, U.S.A.

Now
63 °F

Clear.


Feels Like: 63 °F
Forecast: 60 / 84 °F
Wind: No wind

Location: San Jose International Airport

Current Time: Sep 1, 2014 at 5:10:32 AM

Latest Report: Sep 1, 2014 at 3:53 AM


Visibility: 10 mi

Pressure: 29.83 "Hg

Humidity: 78%

Dew point: 56 °F

Location of Santa ClaraLocation

Historic Weather in Santa Clara — Graph

°F

Santa Clara temperature yesterday

Maximum temperature yesterday: 81 °F (at 2:53 PM)
Minimum temperature yesterday: 58 °F (at 6:53 AM)
Average temperature yesterday: 69 °F

Past Weeks' High & Low Weather Summary

 TemperatureHumidityPressure
High85 °F (Aug 30, 2:53 PM)90% (Aug 17, 3:53 AM)30.07 "Hg (Aug 17, 3:53 AM)
Low57 °F (Aug 26, 5:53 AM)34% (Aug 30, 11:53 AM)29.79 "Hg (Aug 19, 4:53 PM)
Average67 °F69%29.91 "Hg
* Reported Aug 17 3:53 AM — Sep 1 3:53 AM, Santa Clara, Weather by CustomWeather, © 2014

Note: Actual official high and low records may vary slightly from our data, if they occured in-between our weather recording intervals... More about our weather records

Advertising

Santa Clara weather history for previous 24 hours

 ConditionsComfort  
Time TempWeatherWind HumidityBarometerVisibility
3:53 AM
Sep 1
63 °FClear.No wind78%29.83 "Hg10 mi
2:53 AM62 °FClear.No wind80%29.84 "Hg10 mi
1:53 AM64 °FClear.No wind78%29.84 "Hg10 mi
12:53 AM64 °FClear.No wind75%29.85 "Hg10 mi
11:53 PM
Aug 31
64 °FClear.3 mph75%29.85 "Hg10 mi
10:53 PM65 °FPassing clouds.5 mph76%29.86 "Hg10 mi
9:53 PM66 °FClear.5 mph70%29.86 "Hg10 mi
8:53 PM67 °FClear.5 mph68%29.86 "Hg10 mi
7:53 PM69 °FPassing clouds.13 mph61%29.85 "Hg10 mi
6:53 PM73 °FPassing clouds.12 mph51%29.83 "Hg10 mi
5:53 PM77 °FPassing clouds.16 mph47%29.83 "Hg10 mi
4:53 PM79 °FSunny.15 mph44%29.83 "Hg10 mi
3:53 PM81 °FSunny.12 mph44%29.84 "Hg10 mi
2:53 PM81 °FSunny.14 mph42%29.86 "Hg10 mi
1:53 PM80 °FSunny.10 mph45%29.89 "Hg10 mi
12:53 PM78 °FSunny.9 mph46%29.90 "Hg10 mi
11:53 AM75 °FSunny.5 mph50%29.92 "Hg10 mi
10:53 AM72 °FSunny.7 mph57%29.93 "Hg10 mi
9:53 AM71 °FPassing clouds.5 mph59%29.93 "Hg10 mi
8:53 AM67 °FPassing clouds.No wind68%29.93 "Hg10 mi
7:53 AM62 °FPassing clouds.No wind73%29.93 "Hg10 mi
6:53 AM58 °FPassing clouds.3 mph84%29.92 "Hg10 mi
5:53 AM59 °FClear.No wind87%29.91 "Hg10 mi
Weather by CustomWeather, © 2014

See weather overviewHow to use our weather pages